Location: Balaclava NSW 2575, Australia
(34.4510°S, 150.4953°E)
Time: 18:29:28
(UTC+10:00)

Vanguard 2 - Pass Details

Date: 19 June 2021
Orbit: 552 x 2937 km, 32.9° (Epoch: 24 July)

Event Time Altitude Azimuth Distance (km) Brightness Sun altitude
Rises 12:39:47 0° 259° (W) 5,866 12.0 31.3°
Reaches altitude 10° 12:43:47 10° 267° (W) 5,133 11.9 31.2°
Maximum altitude 12:57:21 36° 325° (NW) 3,971 13.0 30.5°
Drops below altitude 10° 13:12:23 10° 22° (NNE) 5,635 12.7 29.6°
Sets 13:17:08 0° 30° (NNE) 6,479 12.8 29.3°
